sat.trackr.live / text

‹ back to catalog

LANDSAT 8

NORAD 39084 · 2013-008A

PAYLOAD ACTIVE UNKNOWN

§ Identity

Operator
Country
US
Launch date
2013-02-11
Launch site
AFWTR
Launch vehicle
Mass (kg)
RCS (m²)
7.11

Purposes: earth_obs

External: N2YO · Heavens-Above · Gunter

§ Orbital elements

Epoch: 2026-09-20T03:10:51.703104Z

Period
98.83 min
Inclination
98.2214°
Eccentricity
0.0001319
Mean motion
14.57101746 rev/d
Perigee alt
701.6 km
Apogee alt
703.5 km
Semi-major
7,080.7 km
B*
4.7971e-5
RAAN
332.0963°
Arg perigee
94.5169°
Mean anomaly
265.6180°
Rev number
71,172

§ Raw data

LANDSAT 81 39084U 13008A   26263.13254286  .00000171  00000+0  47971-4 0  99962 39084  98.2214 332.0963 0001319  94.5169 265.6180 14.57101746711728

JSON: /api/v1/satellites/39084 · /tle

For live sub-satellite position, see the globe view (requires WebGL).

§ Visibility from observer

Set your observer location to see the next 7 days of passes ≥ 10°. The values pass through the URL so the page stays shareable.

No JS? Fill the form by hand. The geolocation button needs JavaScript.

§ Radio — SatNOGS DB

ModeDescriptionDownlinkUplink
FM S-band telemetry 2.282 GHz
OQPSK X-band Direct Downlink [OQPSK, RHCP, 7/8 LDPC] Transmitter — OLI/TIRS payload 8.201 GHz

2 transmitters · refreshed weekly from db.satnogs.org